Regional Weather Roundup
Issued by NWS

Home | Current Version | Previous Version | Text Only | Print | Product List | Glossary On
Versions: 1 2 3 4 5 6 7 8 9 10 11 12 13 14 15 16 17 18 19 20 21 22 23 24 25 26 27 28 29 30 31 32 33 34 35 36 37 38 39 40 41 42 43 44 45 46 47 48 49 50
000
ASUS46 KLOX 300312
RWRCA

SOUTHERN CALIFORNIA WEATHER ROUNDUP
NATIONAL WEATHER SERVICE OXNARD CALIFORNIA
800 PM PDT FRI AUG 29 2014

NOTE: "FAIR" INDICATES FEW OR NO CLOUDS BELOW 12,000 FEET WITH NO
SIGNIFICANT WEATHER AND/OR OBSTRUCTIONS TO VISIBILITY.

  -  STATIONS PRECEEDED BY AN ASTERISK (*) ARE NOT NWS OR FAA
     STATIONS AND ARE NOT SUBJECT TO NWS AND FAA QUALITY CONTROL.

CAZ041-042-087-300400-
LA AND ORANGE COUNTY COASTAL AREAS


CITY           SKY/WX    TMP DP  RH WIND       PRES   REMARKS
L.A. DOWNTOWN  CLEAR     73  59  61 CALM      29.81R
L.A. AIRPORT   PTCLDY    69  63  81 SW8       29.82R
LONG BEACH     CLEAR     73  60  63 NW9       29.81R

CITY           SKY/WX    TMP DP  RH WIND       PRES   REMARKS
AVALON           N/A     68 N/A N/A MISG        N/A
FULLERTON      CLEAR     77  58  51 W3        29.80R
*GETTY CENTER    N/A     70  54  56 W1          N/A
HAWTHORNE      CLEAR     70  63  78 W7        29.81R
*LOS ALAMITOS  CLEAR     73  60  64 W5        29.81R
*REDONDO BEACH   N/A     69  63  80 W3        29.81R
SANTA ANA      PTCLDY    74  62  66 S7        29.81R
STA MONICA APT CLEAR     70  62  76 S3        29.81R
TORRANCE       PTCLDY    73  61  64 W12       29.81S
*UCLA            N/A     72  59  64 E1        29.80R

$$

CAZ547-548-048-300400-
LA COUNTY VALLEYS AND INLAND EMPIRE


CITY           SKY/WX    TMP DP  RH WIND       PRES   REMARKS
BURBANK        CLEAR     80  53  39 SE7       29.82R
VAN NUYS       CLEAR     83  44  25 CALM      29.81R

CITY           SKY/WX    TMP DP  RH WIND       PRES   REMARKS
CORONA AIRPORT CLEAR     78  56  46 W7        29.81R
*CHATSWORTH      N/A     81  55  40 N2        29.77R
CHINO          PTCLDY    77  57  50 W10       29.82R
MARCH AFB      CLEAR     82  47  29 NW6       29.85R
ONTARIO        PTCLDY    83  55  38 W7        29.81R
*PASADENA        N/A    N/A N/A N/A CALM        N/A
RIVERSIDE      CLEAR     82  48  30 W6        29.82R
SAN BERNARDINO CLEAR     84  39  20 SW7       29.83R
*WHITEMAN AP   CLEAR     82  54  36 SE5       29.86R
*WOODLAND HILL   N/A     82  48  30 S2          N/A

$$

CAZ054-055-300400-
LA AND SAN BERNARDINO COUNTY MOUNTAINS


CITY           SKY/WX    TMP DP  RH WIND       PRES   REMARKS
*BIG BEAR AIRP CLEAR     64  34  32 CALM      30.23R
MT WILSON NWS    N/A     72  36  26 SW1         N/A
SANDBERG       CLEAR     76  38  25 N21G29    30.07R

$$

CAZ028-029-059-060-099-300400-
ANTELOPE VALLEY AND SURROUNDING AREAS


CITY           SKY/WX    TMP DP  RH WIND       PRES   REMARKS
LANCASTER      CLEAR     84  40  21 W20       29.89R
PALMDALE       CLEAR     87  39  18 W15       29.90R

CITY           SKY/WX    TMP DP  RH WIND       PRES   REMARKS
29 PALMS       CLEAR     95  39  14 SW16      29.86R HX  91
BARSTOW/DAGGET CLEAR     98  24   7 W8        29.79R HX  91
BISHOP         MOCLDY    88  19   8 SE14      29.91R
CHINA LAKE     CLEAR     92  26   9 W7        29.80R
EDWARDS AFB    PTCLDY    88  39  17 W18       29.85R
MOJAVE         FAIR      84  39  20 W29G37    29.88S
NEEDLES        PTCLDY   100  33   9 S5        29.70R HX  94
VICTORVILLE    CLEAR     88  25  10 SW8       29.91R

$$

CAZ039-040-300400-
VENTURA AND SANTA BARBARA COUNTY COAST


CITY           SKY/WX    TMP DP  RH WIND       PRES   REMARKS
CAMARILLO      CLEAR     70  61  73 W3        29.82R
NWS OXNARD       N/A     66  60  81 CALM      29.82R
OXNARD AIRPORT CLEAR     65  61  87 W7        29.82R
*POINT MUGU    PTCLDY    68  61  78 NW5       29.82S
SBA APT/GOLETA CLEAR     68  61  78 SE6       29.78S
*SANTA BARBARA   N/A     71  60  70 CALM      29.87S
*VENTURA         N/A     68  61  79 CALM      29.87R

$$

CAZ044-045-300400-
VENTURA COUNTY VALLEYS


CITY           SKY/WX    TMP DP  RH WIND       PRES   REMARKS
*SIMI VALLEY     N/A     76  55  47 CALM      29.78R
*OJAI            N/A     77  56  48 CALM      29.74S
*FILLMORE        N/A     76  60  55 CALM      29.73R

$$

CAZ053-300400-
VENTURA COUNTY MOUNTAINS


CITY           SKY/WX    TMP DP  RH WIND       PRES   REMARKS
*LOCKWOOD VLY    N/A    N/A N/A N/A MISG        N/A
*ROSE VALLEY     N/A     75  46  35 MISG        N/A

$$

CAZ034-035-036-300400-
CENTRAL COAST AND SANTA YNEZ VALLEY


CITY           SKY/WX    TMP DP  RH WIND       PRES   REMARKS
SAN LUIS OBISP CLEAR     63  58  83 NW15G77   29.87R
SANTA MARIA    CLEAR     63  58  83 NW8       29.88S

CITY           SKY/WX    TMP DP  RH WIND       PRES   REMARKS
*CAL POLY SLO    N/A     66  61  82 SW5G12      N/A
*LOMPOC        CLOUDY    63  55  77 W8        29.89R
*PISMO BEACH     N/A     64  61  88 CALM      29.87S
*SANTA YNEZ    FAIR      64  55  72 W6        29.87S

$$

CAZ037-038-051-300400-
SAN LUIS OBISPO COUNTY INTERIOR AND CUYAMA VALLEY


CITY           SKY/WX    TMP DP  RH WIND       PRES   REMARKS
*CUYAMA          N/A     83  46  26 E3        29.79S
PASO ROBLES    CLEAR     83  44  25 NW17      29.84S

$$

CAZ032-033-061-300400-
SOUTHERN DESERTS


CITY           SKY/WX    TMP DP  RH WIND       PRES   REMARKS
BLYTHE         CLEAR     99  41  13 SE3       29.66S HX  94
IMPERIAL       CLEAR    104  40  11 SE3       29.62R HX  98
PALM SPRINGS   CLEAR    104  43  12 NW17      29.69R HX  99
THERMAL        CLEAR     92  52  25 NW3       29.62R

$$

ELSEWHERE ACROSS THE WESTERN UNITED STATES AND MEXICO


CITY           SKY/WX    TMP DP  RH WIND       PRES   REMARKS
DENVER, CO     MOCLDY    60  50  69 S9        30.15S
GRAND CANYON,    N/A    N/A N/A N/A MISG        N/A
HONOLULU, HI   MOSUNNY   86  64  48 E14       29.87S
KAHULUI, MAUI  NOT AVBL
LAKE TAHOE, CA NOT AVBL
LAS VEGAS, NV  PTCLDY    99  32   9 S9        29.76R HX  93
MAMMOTH LAKES, FAIR      73  23  15 NW5       30.20R
MEXICO CITY, M MOCLDY    68  50  52 N14       30.21R
PHOENIX, AZ    PTCLDY   102  41  12 W9        29.71R HX  97
PORTLAND, OR   PTCLDY    73  55  53 N3        29.93F
RENO, NV       CLOUDY    81  30  15 W8        30.03R
SALT LAKE CITY MOCLDY    77  42  28 SE9       29.95S
SAN DIEGO, CA  PTCLDY    71  64  78 NW8       29.84R
SAN FRANCISCO, MOCLDY    64  60  87 NW14      29.90R
SAN JOSE, CA   MOCLDY    69  57  65 NW3       29.89S
SEATTLE, WA    PTCLDY    68  54  60 SW9       29.95S
TIJUANA, MEX   CLEAR     68  61  77 W7        29.86R

$$

STATION/POSITION TIME  TEMP    WIND        PRES    VSBY  WAVE
                       AIR SEA DIR/SP/G                  HT/PER
                 (UTC) (F)     (DEG/KT/KT) (MB)    (MI)  (FT/S)
POINT ARGUELLO B NOT AVBL
WEST SANTA BARBA 0300   62 62  320/ 23/ 27 1009.2F         6/ 6
POINT CONCEPTION NOT AVBL
EAST SANTA BARBA 0200   66 67  270/ 12/ 14 1008.9F
SANTA MONICA BAY 0300   68 72  300/  2/  4 1009.3R         4/ 9


USA.gov is the U.S. government's official web portal to all federal, state and local government web resources and services.